Wind_Speed
24 24 24 24 24 25 26 26 26 27 27 28 28 27 27 26 25 24 25 28 31 32 33 35 37 38 39 40 41 42 42 42 42 41 40 40 39 39 37 38 38 38 39 39 41 42 42 42 42 42 42 41 40 39 39 39 39 38 37 37 38 39 41 43 45 46 47 48 48 48 47 46 45 44
25 25 24 24 25 26 27 27 27 28 29 29 28 27 27 27 26 25 26 29 32 34 34 35 38 39 40 42 43 43 43 43 43 43 42 41 41 41 40 40 41 41 42 42 43 43 44 45 45 45 45 45 44 43 42 41 41 40 40 39 39 40 42 44 45 47 48 49 49 50 50 49 47 46
26 25 25 25 26 27 29 29 29 29 29 28 27 27 27 26 26 27 28 30 32 34 35 36 38 40 41 42 44 44 45 45 45 44 43 43 43 43 43 43 44 44 45 45 46 46 47 47 47 47 47 47 46 45 43 42 42 42 41 41 41 42 42 44 46 48 49 50 51 51 52 51 50 49
27 27 27 27 28 29 29 29 30 30 30 28 27 27 26 26 26 28 30 31 32 33 36 37 39 41 43 44 44 45 46 46 46 45 45 45 45 46 46 46 47 47 47 48 49 49 48 48 47 46 45 45 45 45 44 43 42 42 42 42 43 44 44 45 47 49 50 51 52 53 53 53 53 51
28 29 29 30 30 30 30 30 30 31 31 30 29 29 28 28 30 31 33 34 35 35 37 39 41 43 44 45 45 46 46 46 46 46 46 47 47 48 48 49 49 49 49 49 50 50 49 48 46 45 44 44 43 43 44 43 43 43 44 44 44 45 46 46 48 50 52 53 53 54 55 55 55 54
29 31 31 32 33 32 30 30 31 32 33 32 31 31 31 32 33 34 35 37 38 38 39 41 43 44 45 45 46 47 47 46 46 46 47 48 48 49 50 51 52 52 51 50 50 50 50 49 48 47 46 45 44 43 43 43 44 44 44 45 45 45 47 48 48 50 53 54 55 55 56 56 57 56
31 32 33 33 34 33 31 30 31 33 34 34 33 33 34 34 35 37 38 39 40 41 42 44 45 46 46 46 46 47 47 47 48 48 48 49 49 50 50 51 52 53 53 52 51 50 51 50 50 49 47 46 45 44 44 43 44 45 45 46 46 46 47 48 49 50 53 55 57 57 57 57 58 58
33 33 33 33 33 33 32 32 33 34 34 35 35 35 35 36 37 38 40 41 43 44 45 46 47 47 46 46 47 47 48 49 50 51 51 51 51 51 51 51 51 52 53 53 53 52 51 51 50 50 49 48 47 46 45 45 45 46 46 46 47 47 47 48 50 50 52 55 58 59 58 58 59 60
34 33 32 32 32 32 32 33 34 35 35 36 36 36 36 36 38 39 41 43 45 47 49 49 48 47 46 46 47 48 48 50 54 55 55 54 53 52 51 50 50 51 51 51 52 52 52 52 51 51 51 50 49 48 47 47 47 47 47 47 48 48 48 49 51 51 52 54 58 60 60 60 59 60
33 32 30 29 30 31 32 34 35 35 35 36 37 37 37 37 38 40 43 45 47 49 51 50 47 46 46 46 47 49 50 52 54 55 55 54 53 51 49 49 49 49 49 48 48 49 51 52 52 52 51 50 50 49 48 48 48 48 49 49 49 49 49 49 51 52 52 53 56 60 62 62 61 61
33 31 28 27 29 31 33 34 34 35 35 36 37 38 38 39 40 42 45 47 49 50 50 48 46 45 46 47 48 50 51 53 53 52 52 52 52 50 49 48 46 45 45 46 47 47 49 50 51 50 50 49 49 49 49 49 49 49 50 50 50 49 49 50 51 53 53 53 55 58 62 63 63 62
31 29 27 27 30 33 34 33 34 34 35 36 37 38 39 40 42 44 47 49 50 50 48 46 45 45 47 48 48 48 49 52 52 51 51 50 49 48 48 46 44 44 46 46 45 46 47 47 47 47 47 47 47 47 48 49 49 49 50 51 50 49 49 50 52 53 53 53 54 56 60 64 64 64
30 28 28 30 32 34 34 34 34 35 35 36 37 38 40 41 43 45 48 49 50 48 46 45 45 46 47 49 50 49 50 51 50 49 49 48 46 46 47 46 45 46 48 47 45 44 44 45 45 45 45 45 46 46 46 47 48 49 50 51 51 50 50 51 52 53 53 54 54 55 58 63 65 65
32 30 31 32 33 33 33 34 36 36 36 37 38 39 40 42 44 46 48 47 47 46 44 44 46 48 49 51 52 52 52 51 48 47 47 46 45 45 46 47 48 49 49 47 45 43 43 43 43 42 43 43 44 43 43 44 46 47 49 50 50 49 50 52 53 53 53 54 54 55 56 60 65 66
33 31 33 34 33 33 33 34 35 36 37 39 41 41 41 43 45 47 47 45 44 44 44 45 47 48 50 51 51 51 51 49 47 46 45 45 45 45 46 47 48 48 47 46 43 41 40 41 40 39 39 40 41 41 40 40 41 43 45 47 47 48 50 52 53 54 54 53 54 55 56 58 63 67
33 32 33 33 33 32 33 34 34 36 39 41 41 42 43 46 47 46 45 44 43 44 45 47 48 50 51 51 50 48 48 47 45 44 44 44 44 45 46 47 46 45 43 41 39 36 36 38 38 37 37 37 38 38 38 38 39 40 42 43 45 47 49 51 53 53 54 54 54 54 55 57 60 65
32 32 32 32 32 32 33 35 36 39 42 42 42 44 47 48 48 47 45 44 43 45 47 49 51 52 52 50 48 47 46 45 44 43 43 43 44 45 45 45 42 40 39 38 35 33 34 37 36 35 35 36 36 37 37 37 38 39 40 42 45 47 50 51 53 53 53 54 54 53 54 56 58 62
30 31 31 32 32 33 33 35 38 41 43 43 44 46 49 50 49 47 45 45 46 47 49 52 53 52 51 49 47 45 44 44 43 42 42 43 45 45 44 42 39 37 37 37 35 32 33 35 34 33 34 34 34 35 36 36 37 38 40 43 46 49 51 53 54 53 52 53 54 53 53 55 57 60
28 30 31 31 32 33 33 35 38 41 43 45 47 49 50 51 49 46 45 46 48 49 52 53 52 50 49 48 45 44 43 43 42 42 42 43 45 45 43 39 36 35 35 36 36 33 32 34 33 32 32 32 33 34 35 36 38 40 43 46 49 52 54 55 55 54 51 51 53 53 52 53 56 59
30 31 32 33 33 33 34 36 39 42 44 47 49 50 51 50 48 46 46 47 49 51 53 52 50 48 47 46 44 43 42 42 42 41 42 43 45 44 41 37 34 33 33 34 35 34 32 33 33 32 31 32 33 34 36 39 41 44 47 49 52 55 57 57 56 53 50 48 50 53 53 53 56 58
35 35 35 33 33 33 35 37 40 44 46 48 49 50 50 49 46 46 47 49 51 52 51 49 48 47 46 44 43 42 42 41 41 41 41 43 44 43 39 35 33 31 31 32 34 34 33 34 34 32 32 34 35 37 39 41 44 47 49 52 56 59 59 58 56 52 48 46 47 51 53 54 56 58
39 36 33 32 33 35 36 39 43 45 47 48 49 49 48 46 44 45 48 51 53 52 49 47 46 45 44 43 42 41 41 41 41 41 41 43 44 41 36 32 31 30 29 31 34 34 33 34 34 34 34 35 36 38 41 42 43 46 50 54 58 61 61 57 53 49 46 44 46 50 54 55 56 59
36 31 31 34 36 36 37 40 44 46 48 50 50 48 45 43 44 46 50 52 51 49 47 46 45 44 42 42 41 40 40 39 39 40 40 42 42 39 33 31 31 30 28 30 33 33 32 33 35 36 36 37 36 38 40 41 42 45 49 55 59 62 61 56 51 47 45 45 47 49 53 56 57 59
32 30 34 36 36 36 38 42 44 47 49 50 48 45 42 42 45 49 52 51 49 47 46 45 44 42 41 40 39 39 38 38 38 38 39 40 40 36 32 31 31 30 29 30 32 32 31 33 37 38 39 40 39 38 38 39 41 44 48 53 58 59 56 51 47 45 46 47 48 49 52 56 58 60
32 33 36 36 36 38 42 44 47 49 49 48 45 42 42 44 48 51 51 50 47 45 44 44 42 41 40 39 38 38 37 37 37 37 38 39 38 35 32 32 31 30 30 31 32 32 33 35 39 40 40 42 42 41 40 39 40 42 44 49 53 52 48 43 41 41 44 47 47 48 51 55 58 60
35 35 36 37 40 43 45 46 47 47 46 45 42 41 43 46 50 51 50 47 45 44 43 42 41 39 38 38 37 36 36 35 35 36 37 38 38 36 34 34 33 32 32 31 32 34 35 37 41 42 42 44 44 44 44 41 35 34 39 43 45 44 40 38 37 39 41 44 45 46 49 54 57 59
34 35 37 40 43 44 45 45 45 44 44 43 41 42 45 49 51 50 47 45 44 43 42 40 39 38 37 37 36 35 35 34 34 35 35 36 37 36 35 35 35 35 34 33 33 36 38 40 42 44 45 46 46 46 45 39 29 27 32 37 37 35 34 34 35 36 39 40 42 44 48 52 56 57
32 37 40 40 42 43 43 42 43 43 42 42 42 44 47 49 49 47 45 43 42 41 40 38 37 37 37 36 36 35 34 33 33 34 34 35 35 36 35 35 36 37 36 35 35 37 40 42 43 44 45 47 49 48 41 29 22 21 25 29 29 28 28 29 32 35 37 39 40 42 45 49 52 54
34 40 41 41 42 43 42 42 42 42 42 42 43 46 48 48 47 45 43 41 40 39 38 37 36 36 36 35 35 34 33 33 33 33 33 34 34 35 35 35 36 37 37 36 36 38 41 42 43 45 45 46 49 50 39 24 17 17 20 23 23 24 25 26 28 33 36 38 39 41 44 47 50 51
39 41 41 42 43 42 42 42 42 42 42 44 45 47 48 47 45 43 40 39 38 37 36 36 36 36 36 35 35 34 33 32 32 32 33 33 34 35 35 34 34 35 35 36 37 38 40 42 43 44 46 47 48 48 40 27 17 14 18 22 22 22 25 25 25 29 34 37 39 40 43 45 47 48
44 41 41 43 44 42 43 44 44 44 44 45 47 48 48 46 44 41 38 36 36 35 35 35 36 36 36 35 35 34 33 32 32 32 32 33 34 34 34 33 33 33 34 35 37 38 40 40 42 43 46 48 49 46 39 29 19 13 16 20 20 20 23 24 25 27 30 33 37 40 43 45 45 46
47 45 44 45 44 43 44 45 45 45 46 47 49 49 47 45 41 38 36 35 35 34 35 35 36 37 36 36 35 34 33 33 32 32 32 32 33 34 33 33 32 32 32 33 34 36 38 39 40 43 45 48 49 46 37 27 20 16 16 20 20 20 22 24 25 26 26 26 30 36 42 45 46 47
50 49 47 46 45 45 45 46 45 45 46 48 47 46 43 41 38 36 35 34 34 34 35 35 36 37 37 36 35 34 33 33 32 32 32 32 33 33 33 32 32 32 31 31 32 34 36 37 39 41 43 46 48 46 37 26 19 18 19 21 21 22 23 23 24 25 25 23 23 29 37 43 46 47
51 49 48 48 47 48 48 48 47 48 48 48 46 43 40 37 35 35 34 34 34 35 35 36 36 37 36 35 34 33 33 32 32 32 31 31 32 33 33 32 32 32 31 31 32 32 34 35 36 38 39 42 44 44 38 28 21 20 21 22 22 22 22 23 23 25 26 24 22 25 33 41 45 46
48 47 49 49 49 49 50 50 49 49 49 47 45 42 39 36 35 34 34 34 36 36 36 37 37 37 36 35 34 33 32 31 31 31 31 31 31 33 33 32 32 32 32 32 32 32 32 34 35 35 36 37 38 37 34 28 24 22 22 21 21 21 21 21 22 24 25 24 22 23 29 38 44 46
46 48 50 51 49 48 49 50 50 49 47 44 42 40 38 37 36 34 34 35 37 37 37 37 37 36 36 35 34 33 31 30 30 30 31 31 31 32 33 33 32 32 32 32 32 32 32 33 34 35 36 36 36 32 27 25 25 23 21 21 21 20 19 20 21 22 23 24 22 22 25 33 40 44
48 50 52 53 50 48 47 48 48 46 44 42 40 38 37 36 36 35 36 37 38 38 37 37 37 36 36 35 33 32 31 30 30 30 30 30 30 31 31 32 32 32 32 32 32 32 32 32 34 35 36 36 35 30 23 23 25 24 21 20 19 19 19 19 20 22 24 24 24 23 25 29 34 37
52 53 53 52 51 49 47 46 45 43 41 39 38 37 36 36 36 36 37 38 38 39 38 37 37 36 35 34 33 32 31 30 29 30 30 29 30 30 31 31 31 31 31 31 32 31 31 32 33 34 35 36 36 30 21 20 24 23 21 19 18 18 19 19 20 22 23 24 25 25 26 29 32 33
53 52 51 51 51 50 46 43 42 40 39 37 36 35 36 36 36 37 38 38 38 39 38 37 36 36 35 34 33 31 30 29 29 29 29 29 29 30 31 31 30 30 30 31 31 31 31 31 31 32 33 34 35 32 22 18 21 22 21 19 18 18 19 19 20 22 24 25 26 26 26 29 32 34
50 49 50 50 49 46 42 40 39 38 35 35 35 35 36 37 38 38 38 38 38 38 37 37 36 35 34 33 32 31 30 29 29 29 28 28 29 30 31 31 30 29 30 30 30 30 30 30 30 30 31 31 33 32 25 17 19 20 20 19 17 18 18 19 20 21 23 26 27 26 26 29 33 36
47 48 47 44 42 40 39 37 36 34 34 34 35 36 37 38 38 38 38 38 38 38 37 36 35 34 33 32 31 30 29 29 29 29 28 28 28 29 30 31 30 29 29 29 29 29 29 29 29 29 29 30 30 31 28 21 18 19 19 18 18 18 19 20 20 21 23 26 26 25 25 30 33 35
45 45 42 39 38 37 36 34 33 33 34 35 35 36 37 37 37 38 37 37 37 37 36 35 34 33 32 31 30 29 29 29 29 29 28 28 28 29 30 31 30 29 29 29 29 28 28 28 28 28 28 29 28 29 28 23 19 18 18 18 18 19 19 19 21 22 23 24 25 23 25 30 31 32
42 40 38 36 35 33 32 33 34 34 35 35 35 35 36 36 37 37 36 36 35 34 33 33 32 31 30 29 29 28 28 28 28 28 28 28 28 29 30 30 30 29 29 29 29 28 27 27 26 26 26 27 27 27 26 24 19 18 18 18 18 19 17 16 19 22 22 22 22 23 27 32 29 27
38 36 35 33 31 31 31 33 33 33 34 34 34 35 36 36 36 35 34 34 33 32 31 30 29 28 28 28 27 27 27 27 27 28 28 28 28 29 29 30 30 29 29 29 28 28 27 27 26 25 25 25 25 25 24 22 19 18 17 17 18 19 16 15 18 20 21 21 21 22 28 33 29 25
34 33 31 30 30 30 30 31 31 32 33 33 34 34 34 34 34 33 32 32 31 30 29 28 27 27 26 26 26 27 26 26 27 27 27 28 28 29 30 30 29 29 29 28 28 27 27 26 25 25 24 24 24 24 23 21 18 16 17 17 17 17 16 14 17 20 20 20 21 21 24 30 31 28
Wind_Direction
281 285 286 285 285 285 285 286 288 288 287 288 291 295 298 300 301 302 305 308 308 308 308 308 307 307 307 307 306 305 304 302 300 298 297 296 294 291 287 283 280 276 273 272 271 271 271 270 270 269 268 266 265 263 262 263 263 264 263 262 261 259 255 252 249 246 242 238 236 235 233 232 230 230
276 280 283 283 283 283 285 286 287 287 287 288 291 295 298 299 299 300 303 306 306 306 307 308 306 306 306 306 305 304 303 301 299 298 297 295 294 292 290 287 284 282 279 277 275 273 272 271 271 269 269 268 267 265 263 261 261 261 261 261 260 258 256 254 251 248 245 241 237 235 234 233 231 230
274 277 280 281 282 282 283 284 285 287 289 290 293 296 298 299 300 300 302 305 306 305 306 307 306 306 306 306 305 304 304 302 300 298 297 296 294 293 292 290 288 285 283 281 279 276 274 272 271 270 270 269 268 267 264 262 260 260 259 259 259 257 256 254 251 249 246 243 240 237 235 234 232 230
276 277 279 278 277 278 280 282 286 289 290 290 292 294 297 299 301 302 303 304 305 304 304 305 306 307 307 306 305 304 303 302 300 299 298 297 295 294 293 292 290 288 286 284 282 280 279 277 275 273 271 270 268 267 265 263 261 260 258 257 256 256 255 253 251 249 246 244 241 238 236 234 233 231
278 278 278 276 274 277 281 284 287 290 290 289 289 291 294 297 300 302 303 303 304 304 305 306 307 307 307 306 305 304 302 301 300 299 299 298 298 297 296 294 292 290 288 287 286 285 284 282 281 279 276 273 270 267 265 264 262 260 258 257 255 254 253 252 250 249 247 244 242 240 237 235 233 232
277 277 278 278 277 279 283 285 288 290 291 289 288 289 291 294 298 301 303 304 305 306 307 307 308 308 307 306 304 302 301 300 300 300 300 299 298 297 296 295 293 292 291 290 289 287 286 285 283 281 279 276 273 269 266 264 262 260 259 258 255 253 252 251 250 248 247 245 242 240 238 236 234 232
281 279 278 278 278 279 282 287 290 291 290 290 288 288 290 294 298 301 303 305 306 307 308 309 309 308 307 305 303 302 301 301 301 302 301 300 298 297 295 293 292 291 290 290 288 287 286 285 283 282 279 276 273 270 267 264 261 260 259 258 256 253 252 251 250 248 246 244 242 240 239 237 235 233
286 284 278 275 276 278 282 290 292 290 290 289 289 290 292 295 299 302 304 305 307 309 309 310 309 307 306 305 303 302 302 303 303 302 302 301 299 297 295 292 291 289 288 287 286 285 284 283 282 281 279 277 274 270 267 264 261 259 258 257 256 254 252 251 250 248 246 244 242 240 239 237 235 234
288 286 280 274 274 277 284 291 291 290 289 289 289 291 293 295 299 303 306 307 309 311 310 309 308 306 306 305 304 304 304 304 303 302 302 301 299 297 295 293 291 289 288 287 286 285 284 282 280 279 277 275 273 270 267 264 261 259 257 256 255 254 253 251 251 249 247 244 242 240 239 237 235 234
289 288 284 276 275 279 286 289 289 288 289 289 290 292 293 297 302 306 308 310 312 311 309 307 306 306 306 306 306 305 304 303 302 302 301 300 298 296 294 293 292 291 289 289 288 286 284 282 279 277 274 272 270 268 265 262 260 258 256 254 253 253 252 252 251 250 248 246 243 240 239 237 236 234
289 288 285 280 281 284 286 287 286 286 288 290 292 293 296 301 305 307 309 311 311 309 307 305 305 305 306 307 307 305 304 303 302 301 300 299 298 297 296 296 295 292 291 291 290 288 284 281 278 275 273 270 267 265 262 260 259 257 256 254 252 251 250 250 250 250 249 247 245 242 239 237 236 234
287 284 281 283 287 288 287 287 286 287 289 292 294 296 299 303 305 307 309 310 309 307 305 304 304 304 306 306 306 305 304 304 303 300 299 298 298 298 298 298 297 295 295 293 290 287 283 280 277 274 271 269 266 264 262 260 258 257 255 254 252 251 250 249 249 249 249 247 246 243 240 237 236 234
284 279 281 288 291 290 289 288 288 290 292 293 295 298 300 302 304 306 308 308 307 304 302 303 304 305 306 306 306 305 303 302 301 299 298 298 298 299 300 300 299 297 295 290 287 285 283 279 276 273 271 270 267 265 262 260 258 257 256 255 253 251 250 249 248 247 247 247 246 245 241 238 236 234
283 280 286 292 293 290 289 289 289 291 293 294 296 297 299 302 304 305 307 306 304 302 301 303 306 307 308 307 306 304 302 301 299 298 298 298 299 300 301 300 299 297 293 289 287 286 283 279 276 274 272 271 269 267 264 261 260 258 257 256 255 253 252 251 248 246 245 245 245 245 243 239 236 234
283 284 289 291 290 289 289 289 291 294 296 297 297 298 300 303 305 306 306 304 302 301 303 306 308 308 308 306 304 302 301 299 298 297 298 299 299 300 299 298 297 295 292 289 288 286 283 280 277 275 272 270 269 268 266 263 261 259 258 257 256 256 255 253 250 247 244 244 243 244 244 241 238 235
285 288 290 289 288 289 289 290 292 295 297 298 299 300 303 306 306 306 305 302 301 302 305 308 309 308 306 304 302 301 299 298 298 298 299 300 300 299 298 298 296 294 291 289 287 285 282 278 276 275 272 269 268 267 266 264 262 260 259 258 257 257 256 255 253 249 245 242 241 242 243 242 239 237
287 290 289 288 289 289 290 291 293 295 296 296 298 301 305 307 307 306 304 302 301 303 306 308 308 306 304 302 301 300 299 298 298 299 300 300 299 299 298 298 296 293 290 289 287 284 281 278 276 274 271 269 267 266 265 263 262 261 260 260 259 258 258 257 256 253 248 243 240 240 241 242 241 238
290 290 288 288 288 288 289 292 294 294 294 296 300 304 307 308 307 306 304 303 302 304 306 307 306 304 302 301 301 301 299 299 299 299 300 300 299 298 299 297 294 292 291 290 288 285 282 279 276 273 271 269 267 266 265 265 264 263 263 262 261 261 260 259 258 255 250 244 239 238 239 240 241 240
290 289 288 288 286 286 288 290 291 291 293 297 302 305 305 306 306 305 303 302 303 305 306 306 304 302 301 301 301 300 299 298 299 300 300 299 298 299 299 295 291 290 291 291 289 287 283 281 279 276 273 271 269 268 267 266 265 264 264 263 263 263 262 262 260 257 253 246 240 237 236 238 239 240
287 287 286 285 284 285 287 289 289 290 293 296 299 301 303 304 304 303 301 301 303 306 306 304 302 301 301 302 302 300 298 298 299 300 300 299 299 300 299 292 288 289 290 290 288 287 285 283 281 280 277 275 274 271 269 268 267 266 266 265 264 264 263 263 262 259 254 247 240 236 235 235 236 238
288 286 284 284 284 285 287 288 289 290 293 295 298 301 302 302 301 300 300 301 304 305 304 302 302 302 303 304 303 301 299 299 299 300 300 299 300 301 297 289 286 287 289 287 286 285 285 284 282 281 278 276 275 273 271 270 269 269 268 267 265 264 263 263 262 258 253 247 240 236 234 233 233 235
287 286 284 284 283 284 286 288 289 290 292 296 299 301 301 299 299 300 302 303 305 305 303 302 302 304 305 305 304 302 300 300 300 301 300 300 301 301 295 287 284 286 287 287 285 284 285 284 282 281 278 277 277 277 276 275 275 274 272 269 266 264 262 261 259 256 252 247 241 236 233 231 231 232
282 283 286 284 281 282 285 288 291 292 294 297 300 301 299 299 300 301 303 305 305 303 302 303 304 305 306 305 303 301 301 300 300 301 301 302 303 301 295 289 287 287 288 288 285 284 284 283 282 282 282 282 283 284 284 283 281 278 274 269 266 264 262 260 258 255 251 246 241 236 232 229 229 230
275 284 289 285 282 285 287 290 292 294 295 298 300 300 299 300 302 304 305 305 303 302 303 304 305 306 306 304 303 301 301 300 300 301 302 304 304 300 294 291 291 290 290 289 286 285 285 283 284 287 289 290 290 292 292 291 289 282 272 267 267 267 265 263 260 255 251 246 240 236 231 227 227 229
274 286 290 287 287 291 291 292 293 293 296 299 300 299 299 301 303 305 305 304 302 302 304 305 306 306 305 304 303 302 302 302 302 303 304 305 305 301 295 294 295 294 293 292 289 287 287 287 289 292 295 298 299 300 300 299 295 284 271 265 266 266 266 264 259 253 248 244 239 235 230 226 226 228
277 285 288 288 292 294 293 293 294 294 297 299 298 298 299 302 304 305 304 302 302 303 304 305 305 305 305 304 303 302 303 304 304 305 305 305 304 301 297 296 297 296 295 294 293 291 291 293 296 299 301 303 305 306 307 305 296 280 271 267 265 263 262 258 251 246 243 241 237 233 228 225 224 227
276 284 289 291 292 293 293 294 295 296 298 298 297 297 300 303 305 305 303 301 301 303 303 304 304 304 303 303 303 303 304 304 304 304 304 304 303 301 299 297 296 296 296 296 296 295 295 299 302 304 306 307 308 311 310 306 293 275 269 270 268 266 262 254 246 242 239 237 234 230 226 224 224 226
277 289 294 292 292 294 295 296 297 297 297 296 296 298 302 305 305 304 301 300 301 302 302 302 303 302 302 303 302 303 304 303 302 302 303 302 302 302 302 299 294 293 294 295 297 297 299 303 305 307 309 309 310 313 310 300 289 279 270 268 270 270 264 253 244 241 238 234 229 226 224 223 224 227
288 296 297 295 296 297 297 297 297 296 295 294 296 300 304 306 305 302 300 299 299 301 301 300 300 301 302 302 302 302 303 302 302 302 303 303 303 304 305 303 296 292 292 293 296 299 301 305 307 308 310 310 312 315 313 299 288 284 271 265 265 264 261 255 246 242 239 233 227 223 222 223 225 228
297 298 297 297 297 298 298 298 296 295 294 294 297 302 306 307 304 301 299 298 298 299 298 298 299 300 301 302 301 301 302 303 304 305 305 305 306 307 309 307 300 295 293 294 297 299 302 306 308 310 311 312 314 318 317 306 295 285 271 265 261 256 256 254 246 242 239 233 226 222 220 222 224 226
300 299 297 297 297 298 299 298 295 293 294 296 301 305 307 306 303 299 297 296 297 297 297 297 298 300 301 302 301 303 304 305 306 307 306 306 306 308 309 308 302 298 296 297 299 301 304 308 310 311 312 314 316 319 317 308 301 295 278 267 261 256 254 252 247 243 238 233 228 223 220 219 220 222
300 300 298 296 296 297 299 299 298 296 297 300 304 306 306 303 300 297 296 296 297 296 296 297 298 299 300 301 302 304 306 307 307 307 305 305 305 306 308 307 303 300 298 299 301 303 306 309 311 312 314 316 318 320 318 309 302 296 278 264 260 258 253 251 249 241 233 234 234 228 222 218 217 218
299 299 298 296 294 295 297 299 299 298 298 300 303 304 302 300 298 297 297 297 297 296 296 296 298 298 299 301 303 304 305 306 305 305 304 303 303 304 305 305 303 301 300 300 302 304 307 309 311 313 315 318 320 320 317 308 298 289 275 263 262 263 254 247 244 234 226 232 240 234 226 220 216 216
297 297 297 296 294 293 295 298 299 299 300 303 304 303 301 298 297 296 297 297 296 295 295 295 296 297 299 301 302 303 303 304 303 303 302 301 301 302 303 304 302 301 301 301 303 305 307 308 310 313 315 318 321 320 314 305 296 288 278 269 267 267 255 242 237 232 227 230 238 235 227 221 217 215
295 295 296 296 294 293 296 299 301 303 304 306 305 304 301 299 297 297 296 296 295 295 295 295 296 297 298 300 301 301 301 301 301 300 300 300 300 301 302 303 303 302 302 302 303 305 307 308 310 312 314 317 320 318 310 300 292 287 281 274 272 268 255 239 233 231 230 233 238 233 224 219 217 215
295 295 295 295 294 295 298 300 302 304 306 305 304 302 301 300 299 298 296 294 293 293 294 295 296 297 298 298 299 299 299 299 299 299 299 299 299 300 301 303 303 303 303 303 304 306 308 310 311 313 315 318 321 319 307 292 285 282 280 277 273 266 255 243 235 231 231 232 233 230 222 216 214 214
295 295 294 293 294 297 300 301 303 304 304 303 302 301 301 300 299 298 296 294 293 294 294 295 296 297 297 297 297 297 297 297 297 297 298 298 298 299 301 302 303 303 304 304 305 307 310 311 312 314 317 320 324 323 307 284 278 279 277 274 272 264 255 247 239 234 233 230 227 226 221 214 212 215
296 295 294 294 295 298 301 302 303 303 303 302 301 301 301 301 300 299 297 295 295 294 294 295 297 297 296 296 296 296 296 296 296 297 297 297 298 298 300 301 302 302 303 304 306 308 310 312 313 315 318 321 325 326 309 277 272 276 275 270 268 262 255 249 242 236 235 232 227 224 220 215 213 214
296 294 294 295 296 299 301 302 302 302 302 302 302 302 302 301 300 299 297 296 295 294 295 296 296 296 296 295 295 294 295 295 296 296 297 297 297 298 299 300 301 301 302 304 306 308 311 312 313 315 318 322 326 328 314 276 264 270 271 267 262 256 251 248 243 236 233 231 227 223 222 219 216 213
293 293 294 296 298 299 301 301 301 302 302 302 302 303 302 301 300 298 297 295 294 294 295 296 296 295 295 295 294 294 294 294 295 295 295 296 296 297 298 300 300 301 301 303 306 308 310 312 314 316 319 322 326 329 323 292 267 267 268 264 258 249 244 244 242 236 232 229 225 225 226 220 214 211
291 292 294 296 297 299 300 300 300 301 301 302 303 303 302 301 299 297 296 295 295 295 296 296 295 295 294 293 293 293 293 294 295 295 295 295 296 296 297 298 300 300 301 302 304 307 310 313 315 317 320 322 325 330 327 309 281 268 266 263 256 247 246 247 242 236 233 229 226 227 224 216 212 211
292 294 295 296 298 299 300 299 300 301 302 303 304 303 302 300 299 297 296 296 296 295 295 295 294 294 293 292 292 292 293 293 294 294 294 295 295 295 296 297 298 300 300 301 303 306 309 313 315 316 319 321 324 329 329 318 294 272 264 264 257 249 250 249 240 236 236 231 226 224 217 211 212 213
295 296 296 297 299 298 298 300 302 304 305 306 306 305 303 301 300 298 298 297 296 295 295 294 294 293 292 291 291 291 292 292 293 292 293 294 294 295 295 295 297 298 298 300 302 304 308 311 314 315 317 319 322 328 330 323 304 280 265 262 257 251 250 246 237 236 237 231 227 226 219 211 207 207
296 296 296 297 297 298 300 303 304 306 308 308 308 306 304 302 300 299 298 297 296 295 295 294 293 292 291 291 291 292 292 292 293 292 293 294 294 294 294 294 295 296 296 298 300 303 306 310 313 314 316 317 319 325 328 323 308 285 270 263 256 249 248 243 234 232 234 232 230 228 221 214 208 201
296 295 295 296 298 301 304 305 307 309 309 308 307 305 304 302 302 301 299 298 297 296 296 295 293 293 292 292 293 293 294 294 294 294 294 294 293 293 292 292 292 293 293 295 297 300 303 308 311 313 314 316 318 323 327 325 311 287 273 266 254 245 244 240 231 228 233 236 234 227 219 216 214 208
Height
5877 5877 5876 5876 5876 5875 5874 5873 5872 5871 5870 5868 5867 5866 5865 5864 5863 5862 5861 5859 5857 5856 5855 5853 5851 5850 5849 5848 5847 5845 5844 5843 5842 5841 5840 5839 5838 5837 5837 5836 5835 5835 5835 5835 5835 5835 5835 5835 5835 5836 5836 5837 5837 5838 5838 5838 5839 5839 5840 5841 5842 5843 5844 5846 5848 5850 5852 5854 5857 5859 5862 5864 5866 5869
5874 5873 5873 5873 5873 5872 5871 5870 5869 5868 5867 5866 5864 5863 5862 5861 5860 5859 5858 5857 5854 5853 5852 5850 5848 5847 5846 5844 5842 5841 5840 5838 5837 5836 5835 5834 5832 5832 5831 5831 5829 5829 5829 5829 5828 5828 5828 5829 5829 5829 5829 5830 5831 5831 5832 5833 5833 5834 5834 5835 5836 5837 5838 5840 5842 5844 5846 5848 5851 5853 5856 5858 5861 5864
5870 5869 5869 5869 5869 5868 5867 5866 5865 5864 5863 5862 5861 5860 5859 5857 5856 5855 5854 5854 5852 5850 5848 5847 5845 5843 5842 5841 5838 5836 5835 5833 5832 5830 5829 5828 5826 5825 5825 5824 5823 5822 5822 5821 5821 5821 5821 5821 5822 5822 5822 5823 5823 5824 5825 5826 5827 5828 5828 5829 5830 5831 5832 5834 5835 5837 5840 5842 5845 5847 5850 5853 5855 5858
5867 5866 5865 5865 5865 5864 5863 5862 5861 5860 5860 5859 5858 5856 5855 5854 5853 5852 5851 5850 5849 5847 5845 5843 5841 5839 5837 5835 5834 5832 5830 5827 5825 5824 5823 5821 5820 5819 5818 5817 5816 5815 5814 5813 5812 5812 5812 5813 5813 5814 5814 5815 5816 5816 5817 5818 5820 5820 5821 5822 5823 5824 5825 5827 5829 5831 5833 5836 5838 5841 5843 5846 5849 5852
5863 5862 5861 5861 5860 5860 5859 5858 5857 5856 5856 5855 5854 5853 5852 5850 5849 5848 5847 5846 5844 5843 5841 5839 5837 5835 5832 5830 5828 5826 5824 5823 5820 5819 5817 5815 5813 5812 5811 5809 5808 5807 5807 5805 5804 5803 5803 5803 5804 5805 5805 5806 5807 5808 5809 5810 5812 5813 5814 5815 5816 5817 5818 5820 5821 5823 5826 5828 5831 5834 5837 5840 5843 5846
5859 5858 5857 5857 5856 5856 5856 5855 5853 5852 5851 5851 5850 5849 5848 5847 5845 5844 5842 5841 5839 5838 5836 5834 5832 5830 5828 5826 5823 5821 5819 5817 5815 5814 5812 5809 5808 5806 5805 5803 5801 5799 5799 5798 5797 5795 5795 5795 5795 5796 5797 5798 5799 5800 5801 5802 5803 5805 5806 5807 5808 5810 5811 5812 5814 5816 5818 5821 5824 5827 5830 5833 5836 5839
5854 5854 5854 5853 5852 5852 5851 5851 5850 5849 5847 5846 5846 5845 5844 5842 5841 5839 5838 5836 5834 5833 5831 5829 5827 5825 5823 5820 5818 5816 5814 5811 5809 5808 5806 5804 5802 5801 5799 5797 5795 5793 5791 5790 5790 5789 5787 5787 5787 5788 5789 5790 5791 5792 5793 5794 5795 5796 5798 5799 5801 5802 5803 5804 5806 5808 5810 5813 5816 5819 5822 5825 5829 5832
5849 5849 5849 5848 5848 5847 5847 5846 5845 5844 5843 5842 5841 5840 5839 5838 5836 5835 5833 5831 5830 5828 5826 5824 5821 5819 5817 5815 5812 5809 5807 5805 5802 5801 5799 5797 5796 5794 5792 5791 5789 5787 5785 5783 5782 5781 5780 5780 5780 5780 5780 5781 5783 5784 5785 5786 5787 5788 5790 5791 5792 5794 5795 5796 5797 5799 5802 5804 5807 5811 5814 5818 5821 5824
5844 5844 5844 5844 5844 5844 5843 5842 5840 5839 5839 5838 5837 5835 5834 5833 5832 5830 5828 5827 5825 5823 5820 5819 5816 5813 5811 5809 5806 5803 5801 5798 5796 5794 5792 5791 5789 5787 5785 5784 5782 5780 5778 5776 5774 5773 5772 5772 5772 5772 5772 5773 5774 5775 5776 5777 5779 5780 5781 5783 5784 5785 5787 5788 5789 5791 5793 5796 5798 5802 5805 5809 5813 5816
5840 5840 5840 5840 5840 5840 5839 5838 5836 5835 5834 5833 5832 5830 5829 5828 5827 5825 5824 5822 5820 5817 5815 5813 5811 5808 5806 5803 5800 5797 5795 5793 5790 5787 5786 5784 5782 5780 5778 5777 5775 5773 5771 5769 5768 5766 5765 5764 5764 5764 5764 5764 5765 5766 5767 5768 5770 5771 5773 5774 5776 5777 5779 5780 5781 5782 5785 5787 5790 5793 5797 5800 5804 5808
5837 5837 5836 5836 5836 5836 5835 5834 5832 5831 5830 5829 5827 5826 5825 5824 5822 5820 5819 5817 5814 5812 5810 5808 5806 5803 5800 5797 5795 5792 5789 5787 5784 5782 5779 5777 5775 5773 5771 5770 5768 5766 5764 5763 5761 5759 5758 5757 5756 5755 5755 5756 5757 5757 5758 5759 5761 5762 5764 5765 5767 5769 5771 5772 5773 5774 5776 5779 5781 5784 5787 5791 5796 5800
5834 5834 5834 5833 5833 5832 5831 5829 5828 5827 5826 5825 5823 5822 5821 5819 5817 5816 5814 5812 5809 5807 5804 5802 5800 5798 5795 5792 5790 5787 5783 5780 5778 5775 5773 5772 5769 5766 5765 5763 5761 5759 5757 5756 5754 5752 5751 5750 5749 5748 5747 5748 5749 5749 5750 5751 5753 5754 5756 5757 5758 5761 5762 5763 5764 5766 5768 5770 5773 5775 5779 5782 5787 5791
5832 5831 5831 5830 5829 5828 5826 5825 5823 5822 5822 5821 5819 5818 5817 5815 5813 5811 5809 5806 5804 5802 5800 5797 5794 5792 5790 5787 5783 5780 5777 5775 5772 5769 5767 5765 5763 5760 5758 5756 5754 5752 5750 5749 5748 5746 5744 5743 5742 5741 5740 5741 5741 5742 5743 5744 5745 5747 5747 5748 5750 5752 5753 5754 5756 5757 5759 5762 5764 5767 5770 5773 5778 5782
5829 5828 5828 5827 5825 5824 5822 5820 5819 5818 5818 5816 5815 5814 5812 5811 5809 5806 5804 5801 5798 5796 5794 5792 5789 5786 5783 5780 5777 5774 5771 5769 5767 5764 5762 5760 5757 5754 5752 5749 5747 5745 5742 5741 5741 5740 5738 5736 5735 5735 5734 5734 5734 5735 5737 5737 5738 5739 5739 5739 5741 5743 5744 5745 5746 5749 5751 5754 5756 5759 5762 5765 5769 5773
5825 5825 5824 5823 5821 5819 5818 5816 5814 5813 5813 5812 5810 5809 5808 5806 5803 5801 5799 5796 5793 5790 5789 5787 5783 5780 5777 5775 5772 5769 5765 5763 5761 5758 5756 5754 5752 5749 5746 5744 5742 5738 5735 5734 5735 5734 5732 5729 5729 5729 5729 5729 5729 5729 5730 5731 5731 5731 5731 5732 5733 5734 5735 5736 5737 5740 5743 5745 5748 5751 5753 5756 5760 5764
5822 5821 5820 5818 5816 5815 5814 5813 5811 5810 5808 5807 5805 5804 5803 5800 5798 5796 5793 5791 5788 5785 5783 5781 5778 5775 5772 5769 5766 5763 5759 5757 5754 5752 5750 5747 5745 5743 5741 5739 5737 5733 5730 5729 5729 5729 5726 5723 5723 5724 5723 5723 5723 5723 5724 5724 5724 5724 5725 5725 5726 5726 5727 5728 5729 5731 5734 5736 5740 5742 5745 5748 5752 5755
5818 5818 5816 5814 5813 5811 5810 5809 5808 5806 5804 5803 5802 5800 5798 5795 5792 5790 5788 5785 5783 5780 5778 5776 5773 5769 5766 5763 5760 5757 5753 5751 5749 5747 5744 5742 5739 5738 5735 5733 5731 5728 5725 5723 5724 5724 5721 5718 5718 5719 5718 5718 5718 5718 5718 5718 5718 5718 5719 5719 5719 5718 5719 5720 5721 5722 5725 5727 5731 5734 5737 5740 5744 5747
5815 5814 5812 5811 5809 5807 5806 5806 5804 5802 5800 5798 5797 5794 5791 5789 5786 5784 5781 5779 5777 5775 5773 5770 5767 5764 5760 5757 5754 5751 5748 5745 5743 5741 5739 5737 5734 5732 5730 5728 5725 5723 5720 5718 5718 5718 5716 5713 5713 5714 5713 5713 5713 5713 5713 5713 5713 5713 5712 5711 5711 5711 5711 5711 5712 5713 5716 5719 5722 5726 5730 5733 5736 5739
5810 5809 5808 5807 5805 5804 5803 5802 5801 5799 5796 5793 5791 5788 5786 5783 5781 5778 5776 5774 5771 5769 5767 5765 5762 5758 5755 5752 5749 5746 5743 5740 5738 5736 5734 5731 5728 5727 5725 5723 5720 5718 5716 5713 5712 5712 5711 5709 5708 5709 5709 5709 5709 5708 5708 5708 5707 5706 5705 5704 5704 5703 5702 5702 5703 5705 5707 5710 5714 5718 5722 5725 5727 5730
5806 5804 5803 5802 5801 5800 5799 5799 5796 5794 5792 5790 5787 5784 5781 5779 5776 5773 5771 5770 5767 5764 5761 5758 5755 5752 5749 5746 5743 5740 5737 5735 5733 5731 5729 5726 5723 5721 5720 5717 5715 5714 5712 5709 5707 5706 5706 5704 5703 5704 5704 5704 5703 5703 5702 5701 5700 5699 5697 5696 5695 5694 5693 5693 5693 5695 5698 5701 5705 5709 5713 5716 5719 5722
5801 5799 5798 5798 5797 5796 5796 5795 5792 5790 5788 5786 5783 5780 5777 5775 5772 5770 5767 5765 5763 5760 5756 5752 5749 5746 5743 5740 5737 5734 5732 5729 5727 5726 5724 5721 5717 5716 5714 5712 5711 5710 5708 5705 5702 5701 5701 5700 5699 5699 5699 5698 5697 5697 5696 5695 5693 5691 5689 5688 5685 5684 5683 5683 5683 5685 5689 5693 5697 5700 5704 5707 5710 5713
5796 5795 5794 5793 5792 5792 5792 5790 5788 5786 5784 5781 5778 5776 5773 5770 5768 5765 5762 5759 5756 5754 5751 5747 5744 5740 5737 5734 5732 5729 5726 5724 5722 5720 5718 5715 5712 5710 5709 5707 5706 5706 5704 5701 5698 5697 5696 5695 5693 5693 5693 5692 5692 5690 5689 5688 5686 5683 5680 5677 5674 5673 5672 5672 5674 5676 5680 5684 5688 5691 5695 5698 5701 5704
5792 5791 5790 5789 5788 5788 5787 5785 5783 5781 5778 5775 5773 5770 5768 5766 5763 5760 5757 5754 5750 5747 5744 5741 5739 5736 5733 5730 5727 5724 5721 5719 5717 5715 5713 5710 5707 5705 5703 5702 5701 5701 5700 5697 5693 5692 5692 5690 5687 5686 5686 5686 5686 5684 5681 5679 5677 5673 5668 5665 5663 5662 5661 5662 5665 5668 5672 5675 5678 5681 5685 5688 5691 5695
5788 5787 5786 5784 5783 5783 5781 5779 5777 5774 5772 5770 5767 5765 5762 5760 5758 5754 5751 5747 5744 5741 5738 5735 5733 5731 5728 5725 5722 5720 5717 5715 5713 5710 5708 5705 5702 5700 5699 5697 5696 5695 5694 5692 5689 5687 5687 5684 5681 5680 5678 5677 5677 5676 5673 5671 5667 5661 5657 5654 5652 5651 5652 5654 5657 5660 5663 5665 5668 5671 5675 5679 5683 5686
5784 5783 5781 5779 5778 5776 5774 5772 5771 5768 5766 5764 5761 5759 5757 5755 5752 5748 5745 5741 5738 5735 5733 5730 5728 5725 5723 5720 5718 5715 5712 5710 5708 5706 5703 5700 5698 5696 5694 5692 5691 5690 5689 5687 5684 5682 5681 5678 5675 5673 5672 5669 5667 5665 5663 5661 5657 5650 5646 5643 5642 5642 5644 5647 5649 5651 5653 5656 5659 5663 5667 5672 5675 5679
5779 5778 5776 5774 5772 5770 5768 5766 5765 5762 5760 5758 5755 5753 5751 5749 5746 5742 5738 5735 5732 5730 5727 5725 5723 5720 5718 5715 5713 5710 5708 5706 5703 5701 5699 5696 5694 5692 5690 5687 5686 5685 5683 5682 5680 5676 5674 5672 5669 5666 5665 5662 5659 5656 5652 5650 5647 5642 5637 5635 5634 5635 5637 5639 5641 5643 5645 5647 5651 5656 5660 5664 5668 5673
5774 5773 5772 5770 5767 5765 5763 5761 5759 5756 5754 5752 5750 5748 5746 5743 5740 5736 5732 5729 5727 5725 5722 5720 5718 5715 5713 5711 5708 5706 5704 5702 5699 5697 5695 5693 5690 5687 5686 5683 5681 5679 5677 5677 5675 5671 5668 5667 5664 5660 5658 5654 5651 5648 5644 5640 5637 5635 5632 5629 5629 5630 5632 5633 5634 5636 5638 5641 5645 5649 5653 5658 5662 5667
5769 5768 5767 5765 5762 5760 5758 5755 5753 5751 5749 5746 5745 5743 5740 5737 5733 5730 5727 5724 5722 5720 5717 5715 5713 5711 5709 5706 5704 5702 5700 5698 5695 5693 5691 5689 5686 5683 5682 5679 5676 5674 5672 5671 5670 5666 5663 5661 5658 5655 5652 5648 5643 5640 5637 5633 5630 5629 5627 5626 5626 5626 5627 5627 5629 5631 5632 5635 5638 5642 5647 5652 5656 5661
5763 5762 5761 5759 5756 5754 5751 5749 5747 5745 5743 5741 5739 5737 5734 5731 5727 5724 5721 5719 5717 5715 5713 5711 5709 5707 5704 5702 5700 5698 5696 5693 5691 5689 5687 5684 5682 5679 5677 5675 5672 5669 5668 5666 5664 5661 5658 5656 5653 5649 5646 5643 5638 5634 5629 5627 5625 5624 5623 5622 5623 5622 5622 5623 5625 5627 5628 5629 5632 5636 5641 5645 5650 5654
5757 5756 5754 5752 5750 5748 5746 5743 5741 5740 5738 5736 5734 5731 5728 5724 5721 5718 5716 5714 5711 5710 5708 5706 5704 5702 5700 5698 5696 5693 5691 5689 5686 5684 5682 5680 5677 5675 5673 5671 5668 5665 5663 5661 5659 5657 5654 5651 5648 5644 5641 5637 5633 5629 5624 5621 5621 5621 5619 5618 5619 5619 5618 5619 5621 5622 5623 5625 5627 5631 5635 5639 5643 5648
5751 5750 5748 5745 5744 5742 5740 5738 5736 5735 5733 5731 5728 5725 5722 5718 5715 5713 5711 5709 5707 5705 5703 5701 5700 5697 5695 5693 5691 5689 5687 5684 5682 5680 5678 5676 5673 5671 5669 5668 5665 5662 5660 5657 5654 5652 5649 5647 5644 5640 5636 5632 5628 5624 5621 5618 5616 5616 5615 5615 5615 5615 5615 5616 5617 5617 5619 5620 5623 5626 5629 5633 5637 5641
5746 5744 5742 5739 5737 5736 5735 5732 5730 5729 5727 5724 5722 5719 5715 5712 5710 5708 5706 5704 5702 5700 5699 5697 5695 5693 5691 5689 5687 5684 5682 5679 5677 5675 5674 5672 5670 5668 5666 5664 5662 5659 5657 5654 5652 5648 5645 5643 5640 5636 5632 5627 5621 5618 5616 5614 5613 5612 5612 5611 5612 5612 5612 5612 5613 5613 5614 5616 5618 5621 5624 5627 5631 5635
5741 5740 5737 5734 5732 5730 5729 5727 5725 5723 5722 5719 5716 5713 5710 5707 5704 5703 5701 5699 5697 5696 5694 5692 5690 5689 5687 5684 5682 5680 5678 5675 5673 5671 5670 5668 5666 5664 5662 5660 5658 5656 5654 5651 5649 5646 5643 5640 5637 5633 5629 5624 5618 5613 5611 5611 5610 5609 5608 5608 5608 5608 5609 5609 5609 5610 5611 5612 5614 5616 5619 5622 5626 5630
5735 5734 5732 5729 5727 5725 5723 5721 5719 5717 5715 5713 5710 5707 5705 5702 5700 5697 5695 5694 5692 5691 5689 5688 5686 5684 5682 5680 5678 5676 5674 5671 5669 5668 5666 5664 5662 5660 5659 5657 5654 5652 5650 5647 5645 5643 5640 5637 5635 5632 5628 5624 5619 5613 5608 5607 5607 5606 5605 5605 5605 5605 5605 5606 5607 5608 5609 5610 5611 5612 5615 5618 5622 5626
5729 5728 5726 5723 5721 5718 5716 5714 5712 5710 5707 5705 5702 5700 5698 5697 5695 5693 5691 5689 5687 5686 5685 5683 5681 5680 5677 5675 5673 5671 5669 5668 5666 5664 5662 5661 5659 5657 5655 5653 5650 5648 5646 5644 5642 5639 5637 5634 5632 5630 5627 5623 5620 5615 5608 5604 5604 5604 5603 5603 5602 5602 5602 5603 5604 5605 5606 5608 5608 5609 5611 5614 5618 5622
5723 5721 5719 5717 5715 5713 5710 5707 5706 5703 5701 5699 5696 5694 5693 5691 5690 5688 5687 5685 5683 5681 5680 5678 5677 5675 5673 5671 5669 5667 5665 5664 5662 5660 5658 5657 5655 5653 5651 5649 5647 5644 5642 5640 5638 5636 5634 5631 5627 5625 5623 5620 5617 5612 5607 5603 5601 5601 5601 5600 5600 5600 5600 5601 5602 5603 5604 5605 5606 5607 5609 5611 5613 5617
5717 5715 5712 5710 5709 5707 5704 5702 5700 5698 5696 5693 5691 5689 5688 5686 5684 5683 5682 5680 5678 5677 5675 5673 5672 5670 5668 5666 5665 5663 5661 5659 5658 5656 5655 5653 5651 5649 5647 5645 5643 5641 5638 5636 5634 5632 5630 5627 5624 5621 5618 5615 5612 5608 5604 5601 5599 5598 5598 5598 5598 5598 5599 5599 5600 5601 5602 5603 5604 5606 5608 5610 5613 5616
5710 5708 5706 5704 5702 5701 5699 5697 5694 5692 5690 5688 5686 5684 5683 5681 5680 5679 5677 5676 5674 5672 5670 5669 5667 5666 5664 5662 5660 5658 5657 5655 5653 5652 5651 5649 5647 5645 5644 5642 5640 5637 5635 5633 5631 5629 5627 5624 5621 5618 5614 5611 5608 5604 5601 5599 5598 5596 5596 5596 5596 5596 5597 5597 5598 5599 5600 5601 5602 5604 5606 5608 5610 5614
5704 5701 5699 5697 5696 5695 5693 5691 5689 5687 5685 5683 5682 5680 5678 5677 5675 5674 5672 5671 5669 5667 5666 5664 5663 5661 5659 5657 5656 5654 5652 5651 5649 5648 5646 5645 5643 5641 5640 5638 5637 5634 5632 5630 5628 5626 5624 5621 5619 5616 5612 5608 5604 5601 5598 5596 5595 5594 5593 5593 5594 5594 5595 5595 5596 5597 5597 5599 5600 5602 5604 5606 5607 5610
5697 5696 5694 5692 5691 5689 5688 5686 5684 5682 5680 5678 5677 5675 5674 5672 5671 5669 5668 5666 5664 5663 5661 5659 5658 5656 5654 5653 5651 5650 5648 5647 5645 5644 5643 5641 5639 5637 5636 5634 5633 5631 5629 5627 5625 5623 5621 5619 5616 5613 5610 5607 5603 5599 5596 5594 5593 5592 5592 5592 5592 5592 5593 5593 5594 5595 5595 5596 5598 5600 5602 5604 5606 5609
5693 5691 5690 5688 5686 5684 5682 5681 5679 5677 5675 5674 5673 5671 5669 5667 5666 5664 5663 5661 5660 5658 5656 5655 5653 5651 5650 5648 5647 5645 5644 5643 5641 5640 5638 5637 5635 5634 5632 5631 5629 5628 5626 5624 5623 5621 5618 5616 5613 5611 5608 5605 5602 5598 5594 5592 5591 5590 5590 5590 5590 5591 5591 5592 5593 5593 5593 5594 5596 5598 5599 5601 5604 5607
5688 5686 5684 5683 5681 5679 5677 5676 5675 5673 5672 5670 5668 5666 5665 5663 5661 5660 5658 5656 5655 5653 5652 5650 5648 5647 5645 5644 5643 5641 5640 5639 5637 5636 5634 5633 5632 5630 5628 5627 5626 5624 5623 5621 5619 5618 5616 5614 5611 5609 5606 5603 5600 5597 5593 5590 5588 5587 5588 5588 5588 5589 5589 5590 5590 5591 5591 5592 5594 5596 5597 5600 5603 5605
5683 5681 5679 5678 5677 5675 5673 5671 5670 5669 5667 5665 5664 5662 5660 5659 5657 5655 5654 5652 5650 5649 5647 5645 5644 5643 5641 5640 5639 5637 5636 5635 5633 5632 5630 5629 5628 5626 5625 5623 5622 5621 5619 5618 5616 5615 5613 5611 5609 5607 5604 5601 5599 5595 5592 5588 5586 5585 5585 5585 5586 5587 5587 5588 5588 5589 5589 5590 5593 5595 5596 5598 5601 5603
5677 5676 5675 5674 5673 5671 5670 5668 5666 5664 5662 5661 5659 5658 5656 5654 5652 5651 5649 5648 5646 5644 5643 5641 5640 5639 5637 5636 5635 5633 5632 5631 5629 5628 5627 5625 5624 5623 5621 5620 5619 5618 5616 5615 5614 5612 5610 5609 5607 5605 5602 5600 5597 5594 5591 5588 5585 5583 5583 5583 5584 5585 5586 5586 5587 5587 5588 5589 5592 5594 5595 5597 5600 5602
5673 5672 5671 5669 5668 5667 5666 5664 5662 5660 5658 5657 5655 5654 5652 5650 5648 5647 5645 5644 5642 5640 5639 5638 5636 5635 5634 5633 5631 5630 5628 5627 5626 5624 5623 5622 5620 5619 5618 5617 5616 5615 5613 5612 5611 5609 5608 5606 5605 5602 5600 5598 5596 5593 5590 5587 5584 5582 5581 5581 5582 5583 5584 5585 5585 5586 5587 5588 5590 5592 5593 5596 5599 5601